TimeCDT,TemperatureF,Dew PointF,Humidity,Sea Level PressureIn,VisibilityMPH,Wind Direction,Wind SpeedMPH,Gust SpeedMPH,PrecipitationIn,Events,Conditions,WindDirDegrees,DateUTC
12:15 AM,66.2,62.6,88,29.99,10.0,East,5.8,-,N/A,,Clear,90,2013-09-27 05:15:00
12:35 AM,66.2,62.6,88,29.99,10.0,East,5.8,-,N/A,,Clear,90,2013-09-27 05:35:00
12:55 AM,66.2,62.6,88,29.99,10.0,East,5.8,-,N/A,,Clear,100,2013-09-27 05:55:00
2:15 AM,64.4,62.6,94,30.00,10.0,East,3.5,-,N/A,,Clear,90,2013-09-27 07:15:00
2:35 AM,64.4,60.8,88,30.00,10.0,Calm,Calm,-,N/A,,Clear,0,2013-09-27 07:35:00
2:55 AM,64.4,60.8,88,30.00,10.0,Calm,Calm,-,N/A,,Clear,0,2013-09-27 07:55:00
3:15 AM,64.4,60.8,88,30.00,10.0,Calm,Calm,-,N/A,,Clear,0,2013-09-27 08:15:00
3:55 AM,62.6,60.8,94,30.01,10.0,NE,5.8,-,N/A,,Clear,40,2013-09-27 08:55:00
4:15 AM,62.6,60.8,94,30.01,9.0,NE,8.1,-,N/A,,Clear,40,2013-09-27 09:15:00
4:35 AM,62.6,60.8,94,30.01,10.0,NE,5.8,-,N/A,,Clear,40,2013-09-27 09:35:00
5:15 AM,62.6,60.8,94,30.03,10.0,NNE,5.8,-,N/A,,Clear,30,2013-09-27 10:15:00
5:35 AM,62.6,60.8,94,30.03,10.0,NNE,5.8,-,N/A,,Partly Cloudy,30,2013-09-27 10:35:00
5:55 AM,62.6,60.8,94,30.04,9.0,NNE,5.8,-,N/A,,Partly Cloudy,30,2013-09-27 10:55:00
6:15 AM,62.6,60.8,94,30.04,9.0,NNE,5.8,-,N/A,,Scattered Clouds,30,2013-09-27 11:15:00
6:55 AM,62.6,60.8,94,30.05,7.0,NE,5.8,-,N/A,,Partly Cloudy,40,2013-09-27 11:55:00
7:15 AM,62.6,60.8,94,30.06,5.0,NE,4.6,-,N/A,,Clear,40,2013-09-27 12:15:00
7:55 AM,64.4,62.6,94,30.07,7.0,NE,5.8,-,N/A,,Clear,50,2013-09-27 12:55:00
8:15 AM,66.2,64.4,94,30.07,8.0,NE,5.8,-,N/A,,Scattered Clouds,50,2013-09-27 13:15:00
8:35 AM,66.2,64.4,94,30.08,10.0,ENE,5.8,-,N/A,,Partly Cloudy,60,2013-09-27 13:35:00
9:15 AM,69.8,64.4,83,30.09,10.0,East,5.8,-,N/A,,Clear,80,2013-09-27 14:15:00
10:35 AM,75.2,66.2,73,30.09,10.0,SE,4.6,-,N/A,,Clear,140,2013-09-27 15:35:00
10:55 AM,77.0,68.0,74,30.09,10.0,Calm,Calm,-,N/A,,Clear,0,2013-09-27 15:55:00
11:15 AM,78.8,66.2,65,30.09,10.0,SE,6.9,-,N/A,,Clear,140,2013-09-27 16:15:00
11:35 AM,78.8,66.2,65,30.08,10.0,SE,5.8,-,N/A,,Partly Cloudy,130,2013-09-27 16:35:00
12:35 PM,80.6,64.4,58,30.06,10.0,SSE,4.6,-,N/A,,Mostly Cloudy,150,2013-09-27 17:35:00
12:55 PM,82.4,64.4,54,30.05,10.0,SE,4.6,-,N/A,,Mostly Cloudy,130,2013-09-27 17:55:00
1:15 PM,82.4,64.4,54,30.04,10.0,SW,3.5,-,N/A,,Scattered Clouds,220,2013-09-27 18:15:00
1:35 PM,84.2,64.4,51,30.03,10.0,SSE,5.8,-,N/A,,Partly Cloudy,150,2013-09-27 18:35:00
1:55 PM,84.2,64.4,51,30.03,10.0,SSE,6.9,-,N/A,,Partly Cloudy,150,2013-09-27 18:55:00
2:15 PM,82.4,62.6,51,30.02,10.0,East,6.9,-,N/A,,Clear,90,2013-09-27 19:15:00
3:15 PM,86.0,62.6,45,29.99,10.0,ESE,9.2,-,N/A,,Partly Cloudy,120,2013-09-27 20:15:00
3:35 PM,84.2,62.6,48,29.99,10.0,SE,11.5,-,N/A,,Clear,140,2013-09-27 20:35:00
4:55 PM,84.2,62.6,48,29.99,10.0,ESE,8.1,-,N/A,,Mostly Cloudy,110,2013-09-27 21:55:00
5:15 PM,84.2,60.8,45,29.99,10.0,SSE,12.7,-,N/A,,Mostly Cloudy,160,2013-09-27 22:15:00
6:15 PM,80.6,62.6,54,29.99,10.0,SSE,6.9,-,N/A,,Clear,150,2013-09-27 23:15:00
6:35 PM,78.8,62.6,57,29.99,10.0,SE,5.8,-,N/A,,Clear,140,2013-09-27 23:35:00
7:15 PM,75.2,64.4,69,30.00,10.0,SE,5.8,-,N/A,,Clear,130,2013-09-28 00:15:00
8:15 PM,71.6,62.6,73,30.01,10.0,ESE,6.9,-,N/A,,Clear,110,2013-09-28 01:15:00
8:35 PM,71.6,62.6,73,30.01,10.0,ESE,6.9,-,N/A,,Clear,120,2013-09-28 01:35:00
8:55 PM,71.6,62.6,73,30.02,10.0,ESE,6.9,-,N/A,,Clear,120,2013-09-28 01:55:00
9:15 PM,69.8,62.6,78,30.02,10.0,ESE,6.9,-,N/A,,Clear,110,2013-09-28 02:15:00
9:55 PM,69.8,62.6,78,30.02,10.0,ESE,6.9,-,N/A,,Clear,120,2013-09-28 02:55:00
10:15 PM,69.8,62.6,78,30.01,10.0,ESE,6.9,-,N/A,,Clear,120,2013-09-28 03:15:00
10:35 PM,69.8,62.6,78,30.01,10.0,ESE,6.9,-,N/A,,Clear,120,2013-09-28 03:35:00
11:15 PM,68.0,62.6,83,30.01,10.0,SE,8.1,-,N/A,,Clear,130,2013-09-28 04:15:00
11:35 PM,68.0,62.6,83,30.01,10.0,SE,6.9,-,N/A,,Clear,130,2013-09-28 04:35:00